Date String (YYYY-MM-DD hh:mm:ss) UTC,Instrument flags,absolute air pressure of the measurement (hPa),sample flow rate (lpm),inlet stack bypass flow (lpm),air temperature of the measurement (°C),ambient temperature measured by the external sensor (°C),aerosol sample conditioner tube jacket temperature (°C),OPC LED temperature (°C),internal box temperature (°C),relative humidity of the measurement (%),span deviation,mass concentration of particles derived from Lorenz-Mie calculation of OPC scattering (μg/m³),mass concentration of particles derived from Lorenz-Mie calculation of OPC scattering (μg/m³),mass concentration of particles derived from Lorenz-Mie calculation of OPC scattering (μg/m³)
DateTimeUTC,F1_M11,P_M11,Q1_M11,Q2_M11,T1_M11,T2_M11,T3_M11,T4_M11,T5_M11,U1_M11,ZSPAN_M11,X2_M11,X0_M11,X1_M11
2023-11-29 00:00:00,SystemResetWarning,0832.6,5.00,000.00,026.3,025.2,000.0,034.7,027.6,8.5,0000.0,0005.97,0010.96,0005.57
2023-11-29 00:01:00,SystemResetWarning,0832.6,5.00,000.00,026.3,025.2,000.0,034.7,027.5,8.4,0000.0,0005.95,0010.91,0005.55
2023-11-29 00:02:00,SystemResetWarning,0832.6,5.00,000.00,026.3,025.2,000.0,034.7,027.5,8.4,0000.0,0005.95,0010.90,0005.54
2023-11-29 00:03:00,SystemResetWarning,0832.6,5.00,000.00,026.3,025.2,000.0,034.7,027.5,8.4,0000.0,0005.93,0011.75,0005.53
2023-11-29 00:04:00,SystemResetWarning,0832.6,5.00,000.00,026.3,025.2,000.0,034.7,027.5,8.4,0000.0,0005.92,0011.59,0005.52
2023-11-29 00:05:00,SystemResetWarning,0832.6,4.99,000.00,026.3,025.2,000.0,034.7,027.5,8.4,0000.0,0005.90,0011.38,0005.50
2023-11-29 00:06:00,SystemResetWarning,0832.6,5.00,000.00,026.3,025.2,000.0,034.7,027.5,8.5,0000.0,0005.86,0011.36,0005.48
2023-11-29 00:07:00,SystemResetWarning,0832.7,5.00,000.00,026.3,025.2,000.0,034.7,027.5,8.5,0000.0,0005.89,0011.46,0005.47
2023-11-29 00:08:00,SystemResetWarning,0832.7,5.00,000.00,026.2,025.2,000.0,034.7,027.5,8.5,0000.0,0005.86,0011.22,0005.47
2023-11-29 00:09:00,SystemResetWarning,0832.7,5.00,000.00,026.2,025.2,000.0,034.6,027.5,8.5,0000.0,0005.86,0011.36,0005.47
2023-11-29 00:10:00,SystemResetWarning,0832.7,5.00,000.00,026.2,025.1,000.0,034.6,027.4,8.5,0000.0,0005.87,0011.35,0005.47
2023-11-29 00:11:00,SystemResetWarning,0832.7,5.00,000.00,026.2,025.1,000.0,034.6,027.4,8.5,0000.0,0005.89,0011.48,0005.48
2023-11-29 00:12:00,SystemResetWarning,0832.6,4.99,000.00,026.2,025.1,000.0,034.6,027.4,8.5,0000.0,0005.95,0011.73,0005.50
2023-11-29 00:13:00,SystemResetWarning,0832.7,5.00,000.00,026.2,025.1,000.0,034.6,027.4,8.5,0000.0,0005.97,0011.76,0005.51
2023-11-29 00:14:00,SystemResetWarning,0832.7,5.00,000.00,026.2,025.0,000.0,034.6,027.4,8.5,0000.0,0005.98,0010.88,0005.51
2023-11-29 00:15:00,SystemResetWarning,0832.7,5.00,000.00,026.1,025.0,000.0,034.6,027.4,8.5,0000.0,0005.99,0010.64,0005.51
2023-11-29 00:16:00,SystemResetWarning,0832.7,5.00,000.00,026.1,024.9,000.0,034.6,027.3,8.5,0000.0,0006.01,0010.64,0005.51
2023-11-29 00:17:00,SystemResetWarning,0832.7,5.01,000.00,026.1,024.9,000.0,034.6,027.3,8.5,0000.0,0006.02,0010.61,0005.50
2023-11-29 00:18:00,SystemResetWarning,0832.7,5.01,000.00,026.1,024.9,000.0,034.5,027.3,8.5,0000.0,0006.00,0010.54,0005.50
2023-11-29 00:19:00,SystemResetWarning,0832.7,5.01,000.00,026.1,024.9,000.0,034.5,027.3,8.5,0000.0,0005.99,0010.60,0005.49
2023-11-29 00:20:00,SystemResetWarning,0832.7,5.00,000.00,026.1,024.9,000.0,034.5,027.2,8.5,0000.0,0005.95,0009.91,0005.48
2023-11-29 00:21:00,SystemResetWarning,0832.7,4.99,000.00,026.0,024.9,000.0,034.5,027.3,8.5,0000.0,0005.93,0009.77,0005.45
2023-11-29 00:22:00,SystemResetWarning,0832.7,4.99,000.00,026.0,024.9,000.0,034.5,027.2,8.6,0000.0,0005.89,0009.61,0005.42
2023-11-29 00:23:00,SystemResetWarning,0832.7,5.00,000.00,026.0,024.9,000.0,034.5,027.2,8.6,0000.0,0005.79,0009.32,0005.37
2023-11-29 00:24:00,SystemResetWarning,0832.7,5.02,000.00,026.0,024.9,000.0,034.5,027.2,8.6,0000.0,0005.75,0009.23,0005.34
2023-11-29 00:25:00,SystemResetWarning,0832.8,5.00,000.00,026.0,024.9,000.0,034.5,027.2,8.7,0000.0,0005.72,0009.20,0005.31
2023-11-29 00:26:00,SystemResetWarning,0832.8,5.00,000.00,026.0,024.9,000.0,034.5,027.2,8.7,0000.0,0005.68,0009.72,0005.26
2023-11-29 00:27:00,SystemResetWarning,0832.8,4.99,000.00,026.0,024.9,000.0,034.4,027.2,8.7,0000.0,0005.63,0009.69,0005.23
2023-11-29 00:28:00,SystemResetWarning,0832.8,4.99,000.00,025.9,024.9,000.0,034.4,027.1,8.8,0000.0,0005.62,0009.68,0005.21
2023-11-29 00:29:00,SystemResetWarning,0832.8,4.99,000.00,025.9,024.8,000.0,034.4,027.2,8.8,0000.0,0005.60,0009.66,0005.18
2023-11-29 00:30:00,SystemResetWarning,0832.8,5.00,000.00,025.9,024.8,000.0,034.4,027.2,8.9,0000.0,0005.56,0009.67,0005.15
2023-11-29 00:31:00,SystemResetWarning,0832.9,5.01,000.00,025.9,024.8,000.0,034.4,027.1,8.9,0000.0,0005.54,0009.83,0005.12
2023-11-29 00:32:00,SystemResetWarning,0833.4,5.00,000.00,025.9,024.8,000.0,034.4,027.1,8.9,0000.0,0005.52,0010.03,0005.11
2023-11-29 00:33:00,SystemResetWarning,0833.1,5.00,000.00,025.9,024.8,000.0,034.4,027.1,8.9,0000.0,0005.53,0010.18,0005.10
2023-11-29 00:34:00,SystemResetWarning,0832.9,5.00,000.00,025.9,024.7,000.0,034.3,027.1,8.9,0000.0,0005.53,0010.79,0005.10
2023-11-29 00:35:00,SystemResetWarning,0832.9,5.00,000.00,025.8,024.7,000.0,034.3,027.0,9.0,0000.0,0005.51,0011.23,0005.07
2023-11-29 00:36:00,SystemResetWarning,0832.9,4.99,000.00,025.8,024.6,000.0,034.3,027.0,9.0,0000.0,0005.51,0011.36,0005.05
2023-11-29 00:37:00,SystemResetWarning,0833.1,5.00,000.00,025.8,024.6,000.0,034.3,026.9,9.0,0000.0,0005.51,0010.80,0005.03
2023-11-29 00:38:00,SystemResetWarning,0833.3,5.01,000.00,025.8,024.6,000.0,034.3,027.0,9.0,0000.0,0005.50,0010.76,0005.00
2023-11-29 00:39:00,SystemResetWarning,0833.3,5.00,000.00,025.8,024.5,000.0,034.3,027.0,9.0,0000.0,0005.49,0011.50,0004.97
2023-11-29 00:40:00,SystemResetWarning,0833.4,5.00,000.00,025.7,024.5,000.0,034.2,026.9,8.9,0000.0,0005.49,0011.67,0004.94
2023-11-29 00:41:00,SystemResetWarning,0832.9,5.00,000.00,025.7,024.5,000.0,034.2,026.9,8.9,0000.0,0005.52,0011.76,0004.94
2023-11-29 00:42:00,SystemResetWarning,0832.8,5.00,000.00,025.7,024.4,000.0,034.2,026.8,8.9,0000.0,0005.54,0012.08,0004.94
2023-11-29 00:43:00,SystemResetWarning,0832.7,5.00,000.00,025.7,024.4,000.0,034.2,026.8,8.8,0000.0,0005.55,0012.32,0004.94
2023-11-29 00:44:00,SystemResetWarning,0832.7,4.99,000.00,025.7,024.4,000.0,034.2,026.8,8.8,0000.0,0005.52,0012.49,0004.92
2023-11-29 00:45:00,SystemResetWarning,0832.6,4.99,000.00,025.6,024.4,000.0,034.1,026.8,8.8,0000.0,0005.52,0012.08,0004.92
2023-11-29 00:46:00,SystemResetWarning,0832.6,5.01,000.00,025.6,024.4,000.0,034.1,026.8,8.8,0000.0,0005.56,0011.82,0004.94
2023-11-29 00:47:00,SystemResetWarning,0832.7,5.01,000.00,025.6,024.4,000.0,034.1,026.7,8.8,0000.0,0005.59,0012.56,0004.98
2023-11-29 00:48:00,SystemResetWarning,0832.7,5.00,000.00,025.6,024.4,000.0,034.1,026.7,8.8,0000.0,0005.63,0013.25,0005.02
2023-11-29 00:49:00,SystemResetWarning,0832.6,5.00,000.00,025.6,024.4,000.0,034.1,026.7,8.9,0000.0,0005.67,0013.94,0005.06
2023-11-29 00:50:00,SystemResetWarning,0832.6,4.99,000.00,025.5,024.4,000.0,034.1,026.7,8.9,0000.0,0005.68,0013.26,0005.10
2023-11-29 00:51:00,SystemResetWarning,0832.7,4.99,000.00,025.5,024.4,000.0,034.0,026.6,8.9,0000.0,0005.73,0013.91,0005.14
2023-11-29 00:52:00,SystemResetWarning,0832.7,5.00,000.00,025.5,024.3,000.0,034.0,026.7,8.9,0000.0,0005.76,0015.54,0005.16
2023-11-29 00:53:00,SystemResetWarning,0832.7,5.01,000.00,025.5,024.2,000.0,034.0,026.7,8.9,0000.0,0005.79,0015.27,0005.18
2023-11-29 00:54:00,SystemResetWarning,0832.7,5.01,000.00,025.5,024.3,000.0,034.0,026.6,8.9,0000.0,0005.80,0014.82,0005.20
2023-11-29 00:55:00,SystemResetWarning,0832.8,5.00,000.00,025.5,024.3,000.0,034.0,026.6,8.9,0000.0,0005.84,0014.96,0005.22
2023-11-29 00:56:00,SystemResetWarning,0832.9,4.99,000.00,025.4,024.3,000.0,034.0,026.7,8.9,0000.0,0005.87,0014.87,0005.23
2023-11-29 00:57:00,SystemResetWarning,0832.7,5.00,000.00,025.4,024.3,000.0,033.9,026.7,9.0,0000.0,0005.89,0014.92,0005.24
2023-11-29 00:58:00,SystemResetWarning,0832.7,5.01,000.00,025.4,024.3,000.0,033.9,026.6,9.0,0000.0,0005.89,0014.13,0005.24
2023-11-29 00:59:00,SystemResetWarning,0832.8,5.01,000.00,025.4,024.3,000.0,033.9,026.6,9.0,0000.0,0005.84,0013.43,0005.23
